TimeCST,TemperatureF,Dew PointF,Humidity,Sea Level PressureIn,VisibilityMPH,Wind Direction,Wind SpeedMPH,Gust SpeedMPH,PrecipitationIn,Events,Conditions,WindDirDegrees,DateUTC
12:15 AM,61.7,51.4,69,30.07,10.0,South,18.4,-,N/A,,Overcast,170,2012-12-02 06:15:00
12:35 AM,61.0,51.6,71,30.06,7.0,South,17.3,-,N/A,,Mostly Cloudy,180,2012-12-02 06:35:00
12:55 AM,61.7,51.6,69,30.04,10.0,South,23.0,27.6,N/A,,Scattered Clouds,170,2012-12-02 06:55:00
1:15 AM,61.7,51.6,69,30.05,7.0,South,18.4,-,N/A,,Clear,180,2012-12-02 07:15:00
1:55 AM,61.2,51.3,70,30.05,10.0,South,16.1,-,N/A,,Scattered Clouds,180,2012-12-02 07:55:00
2:15 AM,61.0,50.9,69,30.05,10.0,South,17.3,-,N/A,,Mostly Cloudy,180,2012-12-02 08:15:00
2:35 AM,61.0,50.9,69,30.05,10.0,South,16.1,-,N/A,,Mostly Cloudy,180,2012-12-02 08:35:00
2:55 AM,61.3,50.9,69,30.05,10.0,South,15.0,-,N/A,,Overcast,190,2012-12-02 08:55:00
3:15 AM,61.3,51.1,69,30.04,10.0,South,15.0,-,N/A,,Overcast,180,2012-12-02 09:15:00
3:35 AM,61.2,51.1,69,30.04,10.0,South,13.8,-,N/A,,Overcast,180,2012-12-02 09:35:00
3:55 AM,61.0,51.1,70,30.03,10.0,South,15.0,-,N/A,,Overcast,180,2012-12-02 09:55:00
4:15 AM,62.1,51.1,67,30.03,10.0,South,15.0,-,N/A,,Overcast,180,2012-12-02 10:15:00
4:35 AM,62.1,51.8,69,30.03,10.0,South,12.7,19.6,N/A,,Overcast,190,2012-12-02 10:35:00
4:55 AM,62.2,52.0,69,30.03,10.0,South,15.0,-,N/A,,Overcast,190,2012-12-02 10:55:00
5:15 AM,62.6,52.3,69,30.03,10.0,South,13.8,-,N/A,,Overcast,190,2012-12-02 11:15:00
5:35 AM,63.0,52.7,69,30.03,10.0,South,18.4,21.9,N/A,,Overcast,190,2012-12-02 11:35:00
5:55 AM,61.0,54.7,80,30.03,7.0,South,15.0,21.9,0.03,Rain,Heavy Rain,190,2012-12-02 11:55:00
6:15 AM,61.2,54.9,80,30.05,10.0,SSW,11.5,19.6,N/A,,Overcast,200,2012-12-02 12:15:00
6:35 AM,62.1,55.4,79,30.05,10.0,SSW,15.0,21.9,N/A,,Overcast,200,2012-12-02 12:35:00
6:55 AM,63.3,55.6,76,30.06,10.0,SSW,16.1,24.2,N/A,,Overcast,210,2012-12-02 12:55:00
7:15 AM,63.1,55.9,77,30.07,10.0,SSW,16.1,24.2,N/A,,Overcast,210,2012-12-02 13:15:00
7:35 AM,63.3,56.1,77,30.07,10.0,SSW,15.0,20.7,N/A,,Overcast,210,2012-12-02 13:35:00
7:55 AM,63.7,56.1,76,30.07,7.0,SSW,17.3,21.9,N/A,,Overcast,210,2012-12-02 13:55:00
8:15 AM,63.7,56.3,77,30.07,10.0,SSW,16.1,20.7,N/A,,Overcast,210,2012-12-02 14:15:00
8:35 AM,64.4,57.2,77,30.07,10.0,SSW,16.1,21.9,N/A,,Overcast,200,2012-12-02 14:35:00
8:55 AM,64.4,57.6,78,30.08,7.0,SSW,16.1,-,N/A,,Overcast,210,2012-12-02 14:55:00
9:15 AM,64.4,57.9,79,30.09,7.0,SSW,16.1,19.6,N/A,,Overcast,210,2012-12-02 15:15:00
9:35 AM,64.8,58.3,79,30.09,10.0,SSW,13.8,19.6,N/A,,Overcast,210,2012-12-02 15:35:00
9:55 AM,64.9,58.8,81,30.10,10.0,SSW,18.4,23.0,N/A,,Overcast,210,2012-12-02 15:55:00
10:15 AM,65.3,59.0,80,30.10,7.0,SSW,16.1,26.5,N/A,,Overcast,210,2012-12-02 16:15:00
10:35 AM,65.3,59.2,81,30.10,7.0,SSW,18.4,-,N/A,,Overcast,210,2012-12-02 16:35:00
10:55 AM,66.2,59.9,80,30.09,7.0,SSW,19.6,26.5,N/A,,Overcast,210,2012-12-02 16:55:00
11:15 AM,66.2,59.9,80,30.09,7.0,SSW,18.4,24.2,N/A,,Overcast,210,2012-12-02 17:15:00
11:35 AM,66.6,60.1,80,30.08,7.0,SW,17.3,25.3,N/A,,Overcast,220,2012-12-02 17:35:00
11:55 AM,66.4,60.1,80,30.07,7.0,SSW,16.1,24.2,N/A,,Overcast,210,2012-12-02 17:55:00
12:15 PM,66.4,60.1,80,30.07,7.0,SSW,13.8,-,N/A,,Overcast,210,2012-12-02 18:15:00
12:35 PM,66.2,60.3,81,30.06,7.0,SSW,16.1,25.3,N/A,,Overcast,210,2012-12-02 18:35:00
12:55 PM,65.8,60.3,82,30.06,10.0,SW,15.0,19.6,N/A,,Overcast,220,2012-12-02 18:55:00
1:15 PM,65.7,60.4,83,30.06,7.0,SSW,12.7,-,N/A,,Overcast,210,2012-12-02 19:15:00
1:35 PM,65.3,60.4,84,30.05,7.0,SSW,10.4,18.4,N/A,,Overcast,210,2012-12-02 19:35:00
1:55 PM,65.3,60.8,85,30.06,7.0,SSW,12.7,-,N/A,,Overcast,210,2012-12-02 19:55:00
2:15 PM,64.9,60.8,86,30.05,7.0,SSW,10.4,-,N/A,,Overcast,210,2012-12-02 20:15:00
2:35 PM,64.8,60.8,87,30.06,7.0,SSW,9.2,-,N/A,,Overcast,210,2012-12-02 20:35:00
2:55 PM,64.4,61.0,89,30.06,3.0,SSW,8.1,-,N/A,,Overcast,210,2012-12-02 20:55:00
3:15 PM,63.7,61.3,92,30.06,2.5,SSW,9.2,-,N/A,,Overcast,200,2012-12-02 21:15:00
3:35 PM,63.7,61.3,92,30.06,2.5,SSW,9.2,-,N/A,,Overcast,210,2012-12-02 21:35:00
3:55 PM,63.9,61.3,91,30.07,3.0,SSW,8.1,-,N/A,,Overcast,210,2012-12-02 21:55:00
4:15 PM,63.7,61.3,92,30.07,4.0,SSW,6.9,-,N/A,,Overcast,200,2012-12-02 22:15:00
4:35 PM,63.3,61.2,93,30.07,4.0,South,5.8,-,N/A,,Overcast,190,2012-12-02 22:35:00
4:55 PM,62.6,60.8,94,30.07,4.0,South,4.6,-,N/A,,Overcast,190,2012-12-02 22:55:00
5:15 PM,62.6,60.8,94,30.08,5.0,South,3.5,-,N/A,,Overcast,170,2012-12-02 23:15:00
5:35 PM,62.1,60.4,94,30.08,5.0,SSE,6.9,-,N/A,,Overcast,160,2012-12-02 23:35:00
6:15 PM,62.1,60.3,94,30.08,5.0,South,4.6,-,N/A,,Overcast,170,2012-12-03 00:15:00
6:35 PM,62.2,60.4,94,30.07,5.0,SSE,8.1,-,N/A,,Overcast,160,2012-12-03 00:35:00
6:55 PM,63.5,61.2,92,30.07,5.0,South,10.4,-,N/A,,Overcast,180,2012-12-03 00:55:00
7:15 PM,62.8,60.3,91,30.07,7.0,South,8.1,-,N/A,,Mostly Cloudy,170,2012-12-03 01:15:00
7:35 PM,61.5,59.5,93,30.07,5.0,SSE,4.6,-,N/A,,Mostly Cloudy,160,2012-12-03 01:35:00
7:55 PM,59.5,57.7,94,30.08,5.0,ESE,3.5,-,N/A,,Scattered Clouds,120,2012-12-03 01:55:00
8:15 PM,58.1,56.7,95,30.08,3.0,SSE,4.6,-,N/A,,Mostly Cloudy,150,2012-12-03 02:15:00
8:35 PM,57.9,56.7,96,30.09,4.0,SSE,3.5,-,N/A,,Scattered Clouds,150,2012-12-03 02:35:00
8:55 PM,58.1,57.2,97,30.09,2.0,Calm,Calm,-,N/A,,Overcast,0,2012-12-03 02:55:00
9:15 PM,58.1,57.2,97,30.09,4.0,SSE,4.6,-,N/A,,Overcast,150,2012-12-03 03:15:00
9:35 PM,59.4,58.3,96,30.09,5.0,South,3.5,-,N/A,,Overcast,180,2012-12-03 03:35:00
9:55 PM,60.8,59.5,96,30.09,7.0,South,5.8,-,N/A,,Scattered Clouds,170,2012-12-03 03:55:00
10:15 PM,61.2,59.2,93,30.09,7.0,South,6.9,-,N/A,,Scattered Clouds,170,2012-12-03 04:15:00
10:35 PM,61.9,59.9,93,30.09,7.0,South,6.9,-,N/A,,Overcast,170,2012-12-03 04:35:00
10:55 PM,62.2,59.9,92,30.10,7.0,South,6.9,-,N/A,,Overcast,180,2012-12-03 04:55:00
11:15 PM,62.6,59.9,91,30.09,10.0,South,9.2,-,N/A,,Mostly Cloudy,180,2012-12-03 05:15:00
11:35 PM,62.8,60.1,91,30.10,10.0,South,8.1,-,N/A,,Overcast,180,2012-12-03 05:35:00
11:55 PM,63.1,60.3,90,30.09,7.0,South,9.2,-,N/A,,Overcast,180,2012-12-03 05:55:00